Location: Unspecified
(43.3830°N, 0.0000°E)
Time: 23:10:27
(UTC+00:00)

Transit 2A - Pass Details

Date: 23 June 2019
Orbit: 594 x 964 km, 66.7° (Epoch: 19 July)

Event Time Altitude Azimuth Distance (km) Brightness Sun altitude
Exits shadow 23:21:51 44° 150° (SSE) 1,311 6.7 -22.6°
Maximum altitude 23:23:10 51° 114° (ESE) 1,202 6.7 -22.6°
Drops below altitude 10° 23:29:13 10° 41° (NE) 2,668 9.3 -22.8°
Sets 23:31:47 0° 36° (NE) 3,585 10.1 -22.8°
